START_TIME,STEP,MOV.,M35,t_acc.,PL05,t_acc.,PL06,t_acc.,PL07,t_acc.
1979-08-02 00:00:22.750 ,0,0,0.,4.8,4.,4.8,2.,4.8,0.,4.8
1979-08-02 00:00:27.550 ,0,0,0.,4.8,5.,4.8,0.,4.8,0.,4.8
1979-08-02 00:00:32.350 ,0,0,0.,4.8,17.,4.8,1.,4.8,1.,4.8
1979-08-02 00:00:37.150 ,0,0,0.,4.8,12.,4.8,1.,4.8,0.,4.8
1979-08-02 00:00:41.950 ,0,0,0.,4.8,10.,4.8,4.,4.8,1.,4.8
1979-08-02 00:00:46.750 ,1,0,0.,4.8,18.,4.8,1.,4.8,0.,4.8
1979-08-02 00:00:51.550 ,1,0,0.,4.8,12.,4.8,2.,4.8,0.,4.8
1979-08-02 00:00:56.350 ,1,0,0.,4.8,8.,4.8,0.,4.8,1.,4.8
1979-08-02 00:01:01.150 ,1,0,0.,4.8,10.,4.8,1.,4.8,0.,4.8
1979-08-02 00:01:05.950 ,1,0,0.,4.8,9.,4.8,4.,4.8,0.,4.8
1979-08-02 00:01:10.750 ,1,0,0.,4.8,5.,4.8,2.,4.8,0.,4.8
1979-08-02 00:01:15.550 ,1,0,0.,4.8,6.,4.8,0.,4.8,0.,4.8
1979-08-02 00:01:20.350 ,1,0,0.,4.8,11.,4.8,2.,4.8,1.,4.8
1979-08-02 00:01:25.150 ,1,0,0.,4.8,5.,4.8,0.,4.8,0.,4.8
1979-08-02 00:01:29.950 ,1,0,0.,4.8,8.,4.8,3.,4.8,0.,4.8
1979-08-02 00:01:34.750 ,2,0,0.,4.8,4.,4.8,1.,4.8,1.,4.8
1979-08-02 00:01:39.550 ,2,0,0.,4.8,2.,4.8,0.,4.8,0.,4.8
1979-08-02 00:01:44.350 ,2,0,0.,4.8,6.,4.8,0.,4.8,1.,4.8
1979-08-02 00:01:49.150 ,2,0,0.,4.8,3.,4.8,2.,4.8,0.,4.8
1979-08-02 00:01:53.950 ,2,0,0.,4.8,2.,4.8,1.,4.8,0.,4.8
1979-08-02 00:01:58.750 ,2,0,0.,4.8,2.,4.8,0.,4.8,0.,4.8
1979-08-02 00:02:03.550 ,2,0,1.,4.8,0.,4.8,1.,4.8,0.,4.8
1979-08-02 00:02:08.350 ,2,0,0.,4.8,5.,4.8,1.,4.8,1.,4.8
1979-08-02 00:02:13.150 ,2,0,0.,4.8,4.,4.8,0.,4.8,0.,4.8
1979-08-02 00:02:17.950 ,2,0,0.,4.8,5.,4.8,3.,4.8,1.,4.8
1979-08-02 00:02:22.750 ,3,0,0.,4.8,3.,4.8,2.,4.8,1.,4.8
1979-08-02 00:02:27.550 ,3,0,0.,4.8,5.,4.8,0.,4.8,1.,4.8
1979-08-02 00:02:32.350 ,3,0,0.,4.8,2.,4.8,1.,4.8,1.,4.8
1979-08-02 00:02:37.150 ,3,0,0.,4.8,1.,4.8,1.,4.8,0.,4.8
1979-08-02 00:02:41.950 ,3,0,0.,4.8,1.,4.8,0.,4.8,0.,4.8
1979-08-02 00:02:46.750 ,3,0,0.,4.8,1.,4.8,0.,4.8,0.,4.8
1979-08-02 00:02:51.550 ,3,0,0.,4.8,2.,4.8,1.,4.8,2.,4.8
1979-08-02 00:02:56.350 ,3,0,0.,4.8,3.,4.8,0.,4.8,0.,4.8
1979-08-02 00:03:01.150 ,3,0,0.,4.8,4.,4.8,1.,4.8,0.,4.8
1979-08-02 00:03:05.950 ,3,0,0.,4.8,0.,4.8,0.,4.8,0.,4.8
1979-08-02 00:03:10.750 ,4,0,0.,4.8,3.,4.8,0.,4.8,0.,4.8
1979-08-02 00:03:15.550 ,4,0,0.,4.8,2.,4.8,0.,4.8,0.,4.8
1979-08-02 00:03:20.350 ,4,0,0.,4.8,2.,4.8,2.,4.8,1.,4.8
1979-08-02 00:03:25.150 ,4,0,0.,4.8,3.,4.8,0.,4.8,0.,4.8
1979-08-02 00:03:29.950 ,4,0,0.,4.8,4.,4.8,0.,4.8,0.,4.8
1979-08-02 00:03:34.750 ,4,0,0.,4.8,0.,4.8,0.,4.8,0.,4.8
1979-08-02 00:03:39.550 ,4,0,0.,4.8,5.,4.8,0.,4.8,0.,4.8
1979-08-02 00:03:44.350 ,4,0,0.,4.8,1.,4.8,2.,4.8,0.,4.8
1979-08-02 00:03:49.150 ,4,0,0.,4.8,4.,4.8,0.,4.8,0.,4.8
1979-08-02 00:03:53.950 ,4,0,0.,4.8,3.,4.8,0.,4.8,0.,4.8
1979-08-02 00:03:58.750 ,5,0,0.,4.8,3.,4.8,0.,4.8,0.,4.8
1979-08-02 00:04:03.550 ,5,0,0.,4.8,3.,4.8,0.,4.8,0.,4.8
1979-08-02 00:04:08.350 ,5,0,0.,4.8,4.,4.8,1.,4.8,0.,4.8
1979-08-02 00:04:13.150 ,5,0,0.,4.8,3.,4.8,0.,4.8,1.,4.8
1979-08-02 00:04:17.950 ,5,0,0.,4.8,4.,4.8,0.,4.8,0.,4.8
1979-08-02 00:04:22.750 ,5,0,0.,4.8,1.,4.8,0.,4.8,0.,4.8
1979-08-02 00:04:27.550 ,5,0,0.,4.8,4.,4.8,1.,4.8,0.,4.8
1979-08-02 00:04:32.350 ,5,0,0.,4.8,2.,4.8,1.,4.8,0.,4.8
1979-08-02 00:04:37.150 ,5,0,0.,4.8,1.,4.8,1.,4.8,1.,4.8
1979-08-02 00:04:41.950 ,5,0,0.,4.8,1.,4.8,1.,4.8,1.,4.8
1979-08-02 00:04:46.750 ,6,0,0.,4.8,1.,4.8,0.,4.8,1.,4.8
1979-08-02 00:04:51.550 ,6,0,0.,4.8,3.,4.8,2.,4.8,1.,4.8
1979-08-02 00:04:56.350 ,6,0,0.,4.8,12.,4.8,1.,4.8,1.,4.8
1979-08-02 00:05:01.150 ,6,0,0.,4.8,6.,4.8,1.,4.8,1.,4.8
1979-08-02 00:05:05.950 ,6,0,0.,4.8,4.,4.8,2.,4.8,2.,4.8
1979-08-02 00:05:10.750 ,6,0,0.,4.8,1.,4.8,1.,4.8,0.,4.8
1979-08-02 00:05:15.550 ,6,0,0.,4.8,3.,4.8,1.,4.8,3.,4.8
1979-08-02 00:05:20.350 ,6,0,0.,4.8,10.,4.8,1.,4.8,0.,4.8
1979-08-02 00:05:25.150 ,6,0,0.,4.8,10.,4.8,1.,4.8,1.,4.8
1979-08-02 00:05:29.950 ,6,0,0.,4.8,7.,4.8,0.,4.8,0.,4.8
1979-08-02 00:05:34.750 ,7,0,0.,4.8,4.,4.8,1.,4.8,0.,4.8
1979-08-02 00:05:39.550 ,7,0,0.,4.8,11.,4.8,0.,4.8,1.,4.8
1979-08-02 00:05:44.350 ,7,0,0.,4.8,1.,4.8,0.,4.8,0.,4.8
1979-08-02 00:05:49.150 ,7,0,0.,4.8,2.,4.8,0.,4.8,0.,4.8
1979-08-02 00:05:53.950 ,7,0,0.,4.8,3.,4.8,1.,4.8,1.,4.8
1979-08-02 00:05:58.750 ,7,0,0.,4.8,1.,4.8,0.,4.8,0.,4.8
1979-08-02 00:06:03.550 ,7,0,0.,4.8,1.,4.8,0.,4.8,0.,4.8
1979-08-02 00:06:08.350 ,7,0,0.,4.8,0.,4.8,0.,4.8,0.,4.8
1979-08-02 00:06:13.150 ,7,0,0.,4.8,1.,4.8,0.,4.8,0.,4.8
1979-08-02 00:06:17.950 ,7,0,0.,4.8,1.,4.8,0.,4.8,0.,4.8
1979-08-02 00:06:22.750 ,7,0,0.,4.8,1.,4.8,0.,4.8,1.,4.8
1979-08-02 00:06:27.550 ,7,0,0.,4.8,0.,4.8,0.,4.8,0.,4.8
1979-08-02 00:06:32.350 ,7,0,0.,4.8,2.,4.8,0.,4.8,0.,4.8
1979-08-02 00:06:37.150 ,7,0,0.,4.8,1.,4.8,0.,4.8,0.,4.8
1979-08-02 00:06:41.950 ,7,0,0.,4.8,0.,4.8,0.,4.8,0.,4.8
1979-08-02 00:06:46.750 ,7,0,0.,4.8,0.,4.8,0.,4.8,0.,4.8
1979-08-02 00:06:51.550 ,7,0,0.,4.8,1.,4.8,0.,4.8,0.,4.8
1979-08-02 00:06:56.350 ,7,0,0.,4.8,0.,4.8,0.,4.8,0.,4.8
1979-08-02 00:07:01.150 ,7,0,0.,4.8,0.,4.8,0.,4.8,0.,4.8
1979-08-02 00:07:05.950 ,7,0,0.,4.8,1.,4.8,0.,4.8,0.,4.8
1979-08-02 00:07:10.750 ,6,0,0.,4.8,0.,4.8,0.,4.8,0.,4.8
1979-08-02 00:07:15.550 ,6,0,0.,4.8,0.,4.8,0.,4.8,1.,4.8
1979-08-02 00:07:20.350 ,6,0,0.,4.8,10.,4.8,1.,4.8,0.,4.8
1979-08-02 00:07:25.150 ,6,0,0.,4.8,6.,4.8,2.,4.8,0.,4.8
1979-08-02 00:07:29.950 ,6,0,0.,4.8,11.,4.8,2.,4.8,2.,4.8
1979-08-02 00:07:34.750 ,6,0,0.,4.8,9.,4.8,0.,4.8,3.,4.8
1979-08-02 00:07:39.550 ,6,0,0.,4.8,7.,4.8,5.,4.8,1.,4.8
1979-08-02 00:07:44.350 ,6,0,1.,4.8,10.,4.8,0.,4.8,1.,4.8
1979-08-02 00:07:49.150 ,6,0,0.,4.8,6.,4.8,0.,4.8,1.,4.8
1979-08-02 00:07:53.950 ,6,0,0.,4.8,5.,4.8,0.,4.8,0.,4.8
1979-08-02 00:07:58.750 ,5,0,0.,4.8,9.,4.8,0.,4.8,0.,4.8
1979-08-02 00:08:03.550 ,5,0,0.,4.8,8.,4.8,4.,4.8,1.,4.8
1979-08-02 00:08:08.350 ,5,0,0.,4.8,9.,4.8,0.,4.8,0.,4.8
1979-08-02 00:08:13.150 ,5,0,0.,4.8,0.,4.8,2.,4.8,0.,4.8
1979-08-02 00:08:17.950 ,5,0,0.,4.8,2.,4.8,0.,4.8,0.,4.8
1979-08-02 00:08:22.750 ,5,0,0.,4.8,2.,4.8,0.,4.8,0.,4.8
1979-08-02 00:08:27.550 ,5,0,0.,4.8,3.,4.8,0.,4.8,0.,4.8
1979-08-02 00:08:32.350 ,5,0,0.,4.8,2.,4.8,0.,4.8,0.,4.8
1979-08-02 00:08:37.150 ,5,0,0.,4.8,5.,4.8,1.,4.8,0.,4.8
1979-08-02 00:08:41.950 ,5,0,0.,4.8,6.,4.8,0.,4.8,0.,4.8
1979-08-02 00:08:46.750 ,4,0,1.,4.8,2.,4.8,1.,4.8,0.,4.8
1979-08-02 00:08:51.550 ,4,0,0.,4.8,2.,4.8,1.,4.8,0.,4.8
1979-08-02 00:08:56.350 ,4,0,0.,4.8,1.,4.8,1.,4.8,0.,4.8
1979-08-02 00:09:01.150 ,4,0,0.,4.8,1.,4.8,0.,4.8,0.,4.8
1979-08-02 00:09:05.950 ,4,0,0.,4.8,2.,4.8,1.,4.8,0.,4.8
1979-08-02 00:09:10.750 ,4,0,0.,4.8,5.,4.8,0.,4.8,0.,4.8
1979-08-02 00:09:15.550 ,4,0,0.,4.8,6.,4.8,0.,4.8,0.,4.8
1979-08-02 00:09:20.350 ,4,0,0.,4.8,1.,4.8,1.,4.8,0.,4.8
1979-08-02 00:09:25.150 ,4,0,0.,4.8,2.,4.8,0.,4.8,0.,4.8
1979-08-02 00:09:29.950 ,4,0,0.,4.8,3.,4.8,1.,4.8,0.,4.8
1979-08-02 00:09:34.750 ,3,0,0.,4.8,0.,4.8,0.,4.8,0.,4.8
1979-08-02 00:09:39.550 ,3,0,0.,4.8,3.,4.8,1.,4.8,0.,4.8
1979-08-02 00:09:44.350 ,3,0,0.,4.8,2.,4.8,2.,4.8,1.,4.8
1979-08-02 00:09:49.150 ,3,0,0.,4.8,3.,4.8,0.,4.8,0.,4.8
1979-08-02 00:09:53.950 ,3,0,0.,4.8,3.,4.8,0.,4.8,0.,4.8
1979-08-02 00:09:58.750 ,3,0,0.,4.8,4.,4.8,0.,4.8,0.,4.8
1979-08-02 00:10:03.550 ,3,0,0.,4.8,1.,4.8,0.,4.8,0.,4.8
1979-08-02 00:10:08.350 ,3,0,0.,4.8,2.,4.8,0.,4.8,2.,4.8
1979-08-02 00:10:13.150 ,3,0,0.,4.8,3.,4.8,0.,4.8,0.,4.8
1979-08-02 00:10:17.950 ,3,0,0.,4.8,3.,4.8,0.,4.8,0.,4.8
1979-08-02 00:10:22.750 ,2,0,0.,4.8,1.,4.8,0.,4.8,0.,4.8
1979-08-02 00:10:27.550 ,2,0,0.,4.8,5.,4.8,0.,4.8,0.,4.8
1979-08-02 00:10:32.350 ,2,0,0.,4.8,3.,4.8,1.,4.8,0.,4.8
1979-08-02 00:10:37.150 ,2,0,0.,4.8,4.,4.8,0.,4.8,0.,4.8
1979-08-02 00:10:41.950 ,2,0,0.,4.8,3.,4.8,1.,4.8,0.,4.8
1979-08-02 00:10:46.750 ,2,0,0.,4.8,5.,4.8,1.,4.8,0.,4.8
1979-08-02 00:10:51.550 ,2,0,0.,4.8,3.,4.8,0.,4.8,0.,4.8
1979-08-02 00:10:56.350 ,2,0,0.,4.8,3.,4.8,2.,4.8,0.,4.8
1979-08-02 00:11:01.150 ,2,0,0.,4.8,5.,4.8,0.,4.8,0.,4.8
1979-08-02 00:11:05.950 ,2,0,1.,4.8,2.,4.8,1.,4.8,1.,4.8
1979-08-02 00:11:10.750 ,1,0,0.,4.8,2.,4.8,0.,4.8,0.,4.8
1979-08-02 00:11:15.550 ,1,0,0.,4.8,6.,4.8,0.,4.8,0.,4.8
1979-08-02 00:11:20.350 ,1,0,0.,4.8,4.,4.8,0.,4.8,0.,4.8
1979-08-02 00:11:25.150 ,1,0,0.,4.8,7.,4.8,1.,4.8,0.,4.8
1979-08-02 00:11:29.950 ,1,0,0.,4.8,7.,4.8,3.,4.8,0.,4.8
1979-08-02 00:11:34.750 ,1,0,0.,4.8,5.,4.8,1.,4.8,1.,4.8
1979-08-02 00:11:39.550 ,1,0,0.,4.8,4.,4.8,0.,4.8,1.,4.8
1979-08-02 00:11:44.350 ,1,0,0.,4.8,7.,4.8,0.,4.8,0.,4.8
1979-08-02 00:11:49.150 ,1,0,0.,4.8,9.,4.8,3.,4.8,0.,4.8
1979-08-02 00:11:53.950 ,1,0,0.,4.8,8.,4.8,0.,4.8,0.,4.8
1979-08-02 00:11:58.750 ,0,0,0.,4.8,7.,4.8,1.,4.8,1.,4.8
1979-08-02 00:12:03.550 ,0,0,0.,4.8,5.,4.8,0.,4.8,1.,4.8
1979-08-02 00:12:08.350 ,0,0,0.,4.8,11.,4.8,0.,4.8,1.,4.8
1979-08-02 00:12:13.150 ,0,0,0.,4.8,8.,4.8,3.,4.8,0.,4.8
1979-08-02 00:12:17.950 ,0,0,0.,4.8,10.,4.8,2.,4.8,1.,4.8
1979-08-02 00:12:22.750 ,0,0,0.,4.8,10.,4.8,3.,4.8,0.,4.8
1979-08-02 00:12:27.550 ,0,0,1.,4.8,15.,4.8,2.,4.8,0.,4.8
1979-08-02 00:12:32.350 ,0,0,0.,4.8,13.,4.8,0.,4.8,0.,4.8
1979-08-02 00:12:37.150 ,0,0,0.,4.8,3.,4.8,3.,4.8,0.,4.8
1979-08-02 00:12:41.950 ,0,0,0.,4.8,9.,4.8,1.,4.8,1.,4.8
1979-08-02 00:12:46.750 ,0,0,0.,4.8,11.,4.8,0.,4.8,0.,4.8
1979-08-02 00:12:51.550 ,0,0,0.,4.8,8.,4.8,3.,4.8,1.,4.8
1979-08-02 00:12:56.350 ,0,0,0.,4.8,10.,4.8,1.,4.8,0.,4.8
1979-08-02 00:13:01.150 ,0,0,0.,4.8,10.,4.8,1.,4.8,2.,4.8
1979-08-02 00:13:05.950 ,0,0,0.,4.8,11.,4.8,1.,4.8,1.,4.8
1979-08-02 00:13:10.750 ,0,0,0.,4.8,14.,4.8,2.,4.8,1.,4.8
1979-08-02 00:13:15.550 ,0,0,0.,4.8,11.,4.8,2.,4.8,0.,4.8
1979-08-02 00:13:20.350 ,0,0,0.,4.8,8.,4.8,1.,4.8,0.,4.8
1979-08-02 00:13:25.150 ,0,0,0.,4.8,9.,4.8,3.,4.8,0.,4.8
1979-08-02 00:13:29.950 ,0,0,0.,4.8,14.,4.8,0.,4.8,1.,4.8
1979-08-02 00:13:34.750 ,1,0,0.,4.8,11.,4.8,2.,4.8,0.,4.8
1979-08-02 00:13:39.550 ,1,0,0.,4.8,6.,4.8,1.,4.8,1.,4.8
1979-08-02 00:13:44.350 ,1,0,0.,4.8,3.,4.8,0.,4.8,1.,4.8
1979-08-02 00:13:49.150 ,1,0,0.,4.8,4.,4.8,0.,4.8,2.,4.8
1979-08-02 00:13:53.950 ,1,0,0.,4.8,5.,4.8,0.,4.8,0.,4.8
1979-08-02 00:13:58.750 ,1,0,0.,4.8,8.,4.8,3.,4.8,0.,4.8
1979-08-02 00:14:03.550 ,1,0,0.,4.8,6.,4.8,2.,4.8,2.,4.8
1979-08-02 00:14:08.350 ,1,0,0.,4.8,7.,4.8,3.,4.8,0.,4.8
1979-08-02 00:14:13.150 ,1,0,0.,4.8,6.,4.8,0.,4.8,0.,4.8
1979-08-02 00:14:17.950 ,1,0,0.,4.8,6.,4.8,1.,4.8,1.,4.8
1979-08-02 00:14:22.750 ,2,0,0.,4.8,11.,4.8,1.,4.8,1.,4.8
1979-08-02 00:14:27.550 ,2,0,0.,4.8,6.,4.8,2.,4.8,0.,4.8
1979-08-02 00:14:32.350 ,2,0,0.,4.8,5.,4.8,0.,4.8,0.,4.8
1979-08-02 00:14:37.150 ,2,0,0.,4.8,4.,4.8,0.,4.8,2.,4.8
1979-08-02 00:14:41.950 ,2,0,0.,4.8,3.,4.8,1.,4.8,2.,4.8
1979-08-02 00:14:46.750 ,2,0,0.,4.8,4.,4.8,0.,4.8,0.,4.8
1979-08-02 00:14:51.550 ,2,0,0.,4.8,5.,4.8,2.,4.8,2.,4.8
1979-08-02 00:14:56.350 ,2,0,0.,4.8,3.,4.8,0.,4.8,0.,4.8
1979-08-02 00:15:01.150 ,2,0,0.,4.8,4.,4.8,2.,4.8,0.,4.8
1979-08-02 00:15:05.950 ,2,0,0.,4.8,4.,4.8,0.,4.8,1.,4.8
1979-08-02 00:15:10.750 ,3,0,0.,4.8,2.,4.8,0.,4.8,1.,4.8
1979-08-02 00:15:15.550 ,3,0,0.,4.8,1.,4.8,1.,4.8,0.,4.8
1979-08-02 00:15:20.350 ,3,0,0.,4.8,2.,4.8,0.,4.8,1.,4.8
1979-08-02 00:15:25.150 ,3,0,0.,4.8,1.,4.8,2.,4.8,1.,4.8
1979-08-02 00:15:29.950 ,3,0,0.,4.8,4.,4.8,0.,4.8,0.,4.8
1979-08-02 00:15:34.750 ,3,0,0.,4.8,2.,4.8,0.,4.8,0.,4.8
1979-08-02 00:15:39.550 ,3,0,0.,4.8,3.,4.8,0.,4.8,0.,4.8
1979-08-02 00:15:44.350 ,3,0,0.,4.8,2.,4.8,0.,4.8,0.,4.8
1979-08-02 00:15:49.150 ,3,0,0.,4.8,2.,4.8,2.,4.8,0.,4.8
1979-08-02 00:15:53.950 ,3,0,0.,4.8,3.,4.8,0.,4.8,0.,4.8
1979-08-02 00:15:58.750 ,4,0,0.,4.8,1.,4.8,2.,4.8,1.,4.8
1979-08-02 00:16:03.550 ,4,0,0.,4.8,3.,4.8,1.,4.8,0.,4.8
1979-08-02 00:16:08.350 ,4,0,0.,4.8,2.,4.8,0.,4.8,1.,4.8
1979-08-02 00:16:13.150 ,4,0,0.,4.8,1.,4.8,1.,4.8,1.,4.8
1979-08-02 00:16:17.950 ,4,0,0.,4.8,4.,4.8,0.,4.8,0.,4.8
1979-08-02 00:16:22.750 ,4,0,0.,4.8,4.,4.8,0.,4.8,0.,4.8
1979-08-02 00:16:27.550 ,4,0,0.,4.8,3.,4.8,1.,4.8,0.,4.8
1979-08-02 00:16:32.350 ,4,0,0.,4.8,1.,4.8,0.,4.8,0.,4.8
1979-08-02 00:16:37.150 ,4,0,0.,4.8,3.,4.8,0.,4.8,0.,4.8
1979-08-02 00:16:41.950 ,4,0,0.,4.8,1.,4.8,0.,4.8,0.,4.8
1979-08-02 00:16:46.750 ,5,0,0.,4.8,0.,4.8,0.,4.8,0.,4.8
1979-08-02 00:16:51.550 ,5,0,0.,4.8,4.,4.8,0.,4.8,0.,4.8
1979-08-02 00:16:56.350 ,5,0,0.,4.8,4.,4.8,1.,4.8,0.,4.8
1979-08-02 00:17:01.150 ,5,0,0.,4.8,8.,4.8,0.,4.8,1.,4.8
1979-08-02 00:17:05.950 ,5,0,0.,4.8,3.,4.8,0.,4.8,0.,4.8
1979-08-02 00:17:10.750 ,5,0,0.,4.8,6.,4.8,0.,4.8,0.,4.8
1979-08-02 00:17:15.550 ,5,0,0.,4.8,5.,4.8,0.,4.8,0.,4.8
1979-08-02 00:17:20.350 ,5,0,0.,4.8,3.,4.8,2.,4.8,0.,4.8
1979-08-02 00:17:25.150 ,5,0,0.,4.8,4.,4.8,0.,4.8,0.,4.8
1979-08-02 00:17:29.950 ,5,0,0.,4.8,2.,4.8,1.,4.8,0.,4.8
1979-08-02 00:17:34.750 ,6,0,0.,4.8,3.,4.8,1.,4.8,0.,4.8
1979-08-02 00:17:39.550 ,6,0,0.,4.8,4.,4.8,0.,4.8,0.,4.8
1979-08-02 00:17:44.350 ,6,0,0.,4.8,4.,4.8,5.,4.8,0.,4.8
1979-08-02 00:17:49.150 ,6,0,0.,4.8,9.,4.8,2.,4.8,1.,4.8
1979-08-02 00:17:53.950 ,6,0,0.,4.8,13.,4.8,2.,4.8,0.,4.8
1979-08-02 00:17:58.750 ,6,0,1.,4.8,6.,4.8,1.,4.8,1.,4.8
1979-08-02 00:18:03.550 ,6,0,0.,4.8,13.,4.8,1.,4.8,0.,4.8
1979-08-02 00:18:08.350 ,6,0,0.,4.8,11.,4.8,1.,4.8,1.,4.8
1979-08-02 00:18:13.150 ,6,0,0.,4.8,5.,4.8,2.,4.8,1.,4.8
1979-08-02 00:18:17.950 ,6,0,0.,4.8,10.,4.8,2.,4.8,2.,4.8
1979-08-02 00:18:22.750 ,7,0,0.,4.8,8.,4.8,0.,4.8,1.,4.8
1979-08-02 00:18:27.550 ,7,0,0.,4.8,10.,4.8,1.,4.8,1.,4.8
1979-08-02 00:18:32.350 ,7,0,0.,4.8,0.,4.8,0.,4.8,0.,4.8
1979-08-02 00:18:37.150 ,7,0,0.,4.8,0.,4.8,0.,4.8,0.,4.8
1979-08-02 00:18:41.950 ,7,0,0.,4.8,2.,4.8,0.,4.8,0.,4.8
1979-08-02 00:18:46.750 ,7,0,0.,4.8,2.,4.8,1.,4.8,0.,4.8
1979-08-02 00:18:51.550 ,7,0,0.,4.8,0.,4.8,0.,4.8,0.,4.8
1979-08-02 00:18:56.350 ,7,0,0.,4.8,3.,4.8,0.,4.8,0.,4.8
1979-08-02 00:19:01.150 ,7,0,0.,4.8,0.,4.8,0.,4.8,0.,4.8
1979-08-02 00:19:05.950 ,7,0,0.,4.8,4.,4.8,0.,4.8,0.,4.8
1979-08-02 00:19:10.750 ,3,1,0.,4.8,5.,4.8,1.,4.8,0.,4.8
1979-08-02 00:19:15.550 ,3,1,0.,4.8,14.,4.8,4.,4.8,1.,4.8
1979-08-02 00:19:20.350 ,3,1,0.,4.8,0.,4.8,2.,4.8,0.,4.8
1979-08-02 00:19:25.150 ,3,1,0.,4.8,1.,4.8,0.,4.8,2.,4.8
1979-08-02 00:19:29.950 ,3,1,0.,4.8,3.,4.8,1.,4.8,0.,4.8
1979-08-02 00:19:34.750 ,0,1,0.,4.8,3.,4.8,0.,4.8,0.,4.8
1979-08-02 00:19:39.550 ,0,1,0.,4.8,4.,4.8,0.,4.8,0.,4.8
1979-08-02 00:19:44.350 ,0,1,0.,4.8,7.,4.8,0.,4.8,0.,4.8
1979-08-02 00:19:49.150 ,0,1,0.,4.8,13.,4.8,1.,4.8,1.,4.8
1979-08-02 00:19:53.950 ,0,1,0.,4.8,7.,4.8,3.,4.8,0.,4.8
1979-08-02 00:19:58.750 ,4,1,0.,4.8,8.,4.8,4.,4.8,0.,4.8
1979-08-02 00:20:03.550 ,4,1,0.,4.8,8.,4.8,1.,4.8,0.,4.8
1979-08-02 00:20:08.350 ,4,1,0.,4.8,0.,4.8,0.,4.8,0.,4.8
1979-08-02 00:20:13.150 ,4,1,0.,4.8,3.,4.8,0.,4.8,1.,4.8
1979-08-02 00:20:17.950 ,4,1,0.,4.8,0.,4.8,0.,4.8,0.,4.8
1979-08-02 00:20:22.750 ,7,1,0.,4.8,1.,4.8,1.,4.8,0.,4.8
1979-08-02 00:20:27.550 ,7,1,0.,4.8,5.,4.8,1.,4.8,0.,4.8
1979-08-02 00:20:32.350 ,7,1,0.,4.8,9.,4.8,2.,4.8,3.,4.8
1979-08-02 00:20:37.150 ,7,1,0.,4.8,4.,4.8,0.,4.8,1.,4.8
1979-08-02 00:20:41.950 ,7,1,0.,4.8,0.,4.8,0.,4.8,0.,4.8
1979-08-02 00:20:46.750 ,3,1,0.,4.8,2.,4.8,0.,4.8,0.,4.8
1979-08-02 00:20:51.550 ,3,1,0.,4.8,6.,4.8,3.,4.8,0.,4.8
1979-08-02 00:20:56.350 ,3,1,0.,4.8,8.,4.8,0.,4.8,1.,4.8
1979-08-02 00:21:01.150 ,3,1,0.,4.8,1.,4.8,0.,4.8,0.,4.8
1979-08-02 00:21:05.950 ,3,1,0.,4.8,0.,4.8,0.,4.8,0.,4.8
1979-08-02 00:21:10.750 ,0,1,0.,4.8,4.,4.8,1.,4.8,1.,4.8
1979-08-02 00:21:15.550 ,0,1,0.,4.8,3.,4.8,2.,4.8,1.,4.8
1979-08-02 00:21:20.350 ,0,1,0.,4.8,5.,4.8,1.,4.8,0.,4.8
1979-08-02 00:21:25.150 ,0,1,1.,4.8,17.,4.8,3.,4.8,2.,4.8
1979-08-02 00:21:29.950 ,0,1,0.,4.8,12.,4.8,2.,4.8,0.,4.8
1979-08-02 00:21:34.750 ,4,1,0.,4.8,7.,4.8,2.,4.8,0.,4.8
1979-08-02 00:21:39.550 ,4,1,0.,4.8,4.,4.8,1.,4.8,1.,4.8
1979-08-02 00:21:44.350 ,4,1,0.,4.8,2.,4.8,2.,4.8,0.,4.8
1979-08-02 00:21:49.150 ,4,1,0.,4.8,5.,4.8,0.,4.8,0.,4.8
1979-08-02 00:21:53.950 ,4,1,0.,4.8,1.,4.8,0.,4.8,0.,4.8
1979-08-02 00:21:58.750 ,7,1,0.,4.8,6.,4.8,0.,4.8,0.,4.8
1979-08-02 00:22:03.550 ,7,1,0.,4.8,4.,4.8,1.,4.8,0.,4.8
1979-08-02 00:22:08.350 ,7,1,0.,4.8,11.,4.8,2.,4.8,0.,4.8
1979-08-02 00:22:13.150 ,7,1,0.,4.8,4.,4.8,0.,4.8,0.,4.8
1979-08-02 00:22:17.950 ,7,1,0.,4.8,0.,4.8,0.,4.8,0.,4.8
1979-08-02 00:22:22.750 ,3,1,0.,4.8,5.,4.8,0.,4.8,0.,4.8
1979-08-02 00:22:27.550 ,3,1,0.,4.8,10.,4.8,2.,4.8,2.,4.8
1979-08-02 00:22:32.350 ,3,1,0.,4.8,4.,4.8,1.,4.8,0.,4.8
1979-08-02 00:22:37.150 ,3,1,0.,4.8,5.,4.8,0.,4.8,0.,4.8
1979-08-02 00:22:41.950 ,3,1,0.,4.8,1.,4.8,0.,4.8,0.,4.8
1979-08-02 00:22:46.750 ,0,1,0.,4.8,1.,4.8,0.,4.8,0.,4.8
1979-08-02 00:22:51.550 ,0,1,0.,4.8,4.,4.8,0.,4.8,1.,4.8
1979-08-02 00:22:56.350 ,0,1,0.,4.8,6.,4.8,0.,4.8,0.,4.8
1979-08-02 00:23:01.150 ,0,1,0.,4.8,8.,4.8,3.,4.8,0.,4.8
1979-08-02 00:23:05.950 ,0,1,0.,4.8,22.,4.8,2.,4.8,1.,4.8
1979-08-02 00:23:10.750 ,4,1,0.,4.8,9.,4.8,1.,4.8,2.,4.8
1979-08-02 00:23:15.550 ,4,1,0.,4.8,9.,4.8,1.,4.8,0.,4.8
1979-08-02 00:23:20.350 ,4,1,0.,4.8,0.,4.8,1.,4.8,2.,4.8
1979-08-02 00:23:25.150 ,4,1,0.,4.8,5.,4.8,0.,4.8,0.,4.8
1979-08-02 00:23:29.950 ,4,1,0.,4.8,4.,4.8,0.,4.8,0.,4.8
1979-08-02 00:23:34.750 ,7,1,0.,4.8,2.,4.8,0.,4.8,0.,4.8
1979-08-02 00:23:39.550 ,7,1,0.,4.8,4.,4.8,0.,4.8,0.,4.8
1979-08-02 00:23:44.350 ,7,1,0.,4.8,7.,4.8,1.,4.8,1.,4.8
1979-08-02 00:23:49.150 ,7,1,0.,4.8,3.,4.8,1.,4.8,1.,4.8
1979-08-02 00:23:53.950 ,7,1,0.,4.8,1.,4.8,0.,4.8,0.,4.8
1979-08-02 00:23:58.750 ,3,1,0.,4.8,3.,4.8,1.,4.8,1.,4.8
1979-08-02 00:24:03.550 ,3,1,0.,4.8,10.,4.8,2.,4.8,2.,4.8
1979-08-02 00:24:08.350 ,3,1,0.,4.8,8.,4.8,2.,4.8,0.,4.8
1979-08-02 00:24:13.150 ,3,1,0.,4.8,1.,4.8,0.,4.8,0.,4.8
1979-08-02 00:24:17.950 ,3,1,0.,4.8,1.,4.8,0.,4.8,1.,4.8
1979-08-02 00:24:22.750 ,0,1,0.,4.8,2.,4.8,0.,4.8,0.,4.8
1979-08-02 00:24:27.550 ,0,1,0.,4.8,0.,4.8,0.,4.8,0.,4.8
1979-08-02 00:24:32.350 ,0,1,0.,4.8,5.,4.8,2.,4.8,0.,4.8
1979-08-02 00:24:37.150 ,0,1,0.,4.8,13.,4.8,2.,4.8,0.,4.8
1979-08-02 00:24:41.950 ,0,1,0.,4.8,19.,4.8,2.,4.8,0.,4.8
1979-08-02 00:24:46.750 ,4,1,0.,4.8,9.,4.8,2.,4.8,2.,4.8
1979-08-02 00:24:51.550 ,4,1,0.,4.8,7.,4.8,0.,4.8,0.,4.8
1979-08-02 00:24:56.350 ,4,1,0.,4.8,4.,4.8,3.,4.8,0.,4.8
1979-08-02 00:25:01.150 ,4,1,0.,4.8,2.,4.8,0.,4.8,0.,4.8
1979-08-02 00:25:05.950 ,4,1,0.,4.8,4.,4.8,0.,4.8,0.,4.8
1979-08-02 00:25:10.750 ,7,1,0.,4.8,1.,4.8,0.,4.8,0.,4.8
1979-08-02 00:25:15.550 ,7,1,0.,4.8,4.,4.8,1.,4.8,1.,4.8
1979-08-02 00:25:20.350 ,7,1,0.,4.8,8.,4.8,1.,4.8,1.,4.8
1979-08-02 00:25:25.150 ,7,1,0.,4.8,2.,4.8,0.,4.8,0.,4.8
1979-08-02 00:25:29.950 ,7,1,0.,4.8,1.,4.8,1.,4.8,0.,4.8
1979-08-02 00:25:34.750 ,3,1,0.,4.8,2.,4.8,0.,4.8,0.,4.8
1979-08-02 00:25:39.550 ,3,1,0.,4.8,10.,4.8,0.,4.8,0.,4.8
1979-08-02 00:25:44.350 ,3,1,0.,4.8,0.,4.8,1.,4.8,0.,4.8
1979-08-02 00:25:49.150 ,3,1,0.,4.8,1.,4.8,0.,4.8,0.,4.8
1979-08-02 00:25:53.950 ,3,1,0.,4.8,2.,4.8,1.,4.8,0.,4.8
1979-08-02 00:25:58.750 ,0,1,0.,4.8,3.,4.8,0.,4.8,0.,4.8
1979-08-02 00:26:03.550 ,0,1,0.,4.8,0.,4.8,0.,4.8,0.,4.8
1979-08-02 00:26:08.350 ,0,1,0.,4.8,7.,4.8,0.,4.8,1.,4.8
1979-08-02 00:26:13.150 ,0,1,0.,4.8,6.,4.8,1.,4.8,2.,4.8
1979-08-02 00:26:17.950 ,0,1,0.,4.8,12.,4.8,2.,4.8,0.,4.8
1979-08-02 00:26:22.750 ,4,1,1.,4.8,13.,4.8,1.,4.8,0.,4.8
1979-08-02 00:26:27.550 ,4,1,0.,4.8,8.,4.8,2.,4.8,0.,4.8
1979-08-02 00:26:32.350 ,4,1,0.,4.8,6.,4.8,0.,4.8,1.,4.8
1979-08-02 00:26:37.150 ,4,1,0.,4.8,1.,4.8,1.,4.8,0.,4.8
1979-08-02 00:26:41.950 ,4,1,0.,4.8,2.,4.8,1.,4.8,0.,4.8
1979-08-02 00:26:46.750 ,7,1,0.,4.8,3.,4.8,0.,4.8,0.,4.8
1979-08-02 00:26:51.550 ,7,1,0.,4.8,7.,4.8,1.,4.8,0.,4.8
1979-08-02 00:26:56.350 ,7,1,0.,4.8,10.,4.8,4.,4.8,0.,4.8
1979-08-02 00:27:01.150 ,7,1,0.,4.8,1.,4.8,2.,4.8,0.,4.8
1979-08-02 00:27:05.950 ,7,1,0.,4.8,0.,4.8,0.,4.8,0.,4.8
1979-08-02 00:27:10.750 ,3,1,0.,4.8,7.,4.8,0.,4.8,0.,4.8
1979-08-02 00:27:15.550 ,3,1,0.,4.8,5.,4.8,1.,4.8,0.,4.8
1979-08-02 00:27:20.350 ,3,1,0.,4.8,4.,4.8,1.,4.8,0.,4.8
1979-08-02 00:27:25.150 ,3,1,0.,4.8,1.,4.8,2.,4.8,1.,4.8
1979-08-02 00:27:29.950 ,3,1,0.,4.8,1.,4.8,1.,4.8,1.,4.8
1979-08-02 00:27:34.750 ,0,1,0.,4.8,3.,4.8,1.,4.8,0.,4.8
1979-08-02 00:27:39.550 ,0,1,0.,4.8,2.,4.8,0.,4.8,0.,4.8
1979-08-02 00:27:44.350 ,0,1,0.,4.8,11.,4.8,2.,4.8,0.,4.8
1979-08-02 00:27:49.150 ,0,1,0.,4.8,10.,4.8,2.,4.8,1.,4.8
1979-08-02 00:27:53.950 ,0,1,0.,4.8,17.,4.8,1.,4.8,0.,4.8
1979-08-02 00:27:58.750 ,4,1,0.,4.8,12.,4.8,2.,4.8,1.,4.8
1979-08-02 00:28:03.550 ,4,1,0.,4.8,7.,4.8,1.,4.8,0.,4.8
1979-08-02 00:28:08.350 ,4,1,0.,4.8,4.,4.8,0.,4.8,0.,4.8
1979-08-02 00:28:13.150 ,4,1,0.,4.8,4.,4.8,0.,4.8,0.,4.8
1979-08-02 00:28:17.950 ,4,1,0.,4.8,3.,4.8,0.,4.8,0.,4.8
1979-08-02 00:28:22.750 ,7,1,0.,4.8,3.,4.8,1.,4.8,0.,4.8
1979-08-02 00:28:27.550 ,7,1,1.,4.8,7.,4.8,0.,4.8,0.,4.8
1979-08-02 00:28:32.350 ,7,1,0.,4.8,5.,4.8,1.,4.8,1.,4.8
1979-08-02 00:28:37.150 ,7,1,0.,4.8,4.,4.8,0.,4.8,0.,4.8
1979-08-02 00:28:41.950 ,7,1,0.,4.8,0.,4.8,0.,4.8,0.,4.8
1979-08-02 00:28:46.750 ,3,1,0.,4.8,6.,4.8,0.,4.8,0.,4.8
1979-08-02 00:28:51.550 ,3,1,0.,4.8,14.,4.8,5.,4.8,2.,4.8
1979-08-02 00:28:56.350 ,3,1,0.,4.8,3.,4.8,1.,4.8,1.,4.8
1979-08-02 00:29:01.150 ,3,1,0.,4.8,1.,4.8,1.,4.8,0.,4.8
1979-08-02 00:29:05.950 ,3,1,0.,4.8,4.,4.8,0.,4.8,2.,4.8
1979-08-02 00:29:10.750 ,0,1,0.,4.8,3.,4.8,0.,4.8,0.,4.8
1979-08-02 00:29:15.550 ,0,1,0.,4.8,4.,4.8,1.,4.8,0.,4.8
1979-08-02 00:29:20.350 ,0,1,0.,4.8,8.,4.8,2.,4.8,0.,4.8
1979-08-02 00:29:25.150 ,0,1,0.,4.8,18.,4.8,1.,4.8,0.,4.8
1979-08-02 00:29:29.950 ,0,1,1.,4.8,14.,4.8,1.,4.8,2.,4.8
1979-08-02 00:29:34.750 ,0,0,0.,4.8,8.,4.8,3.,4.8,3.,4.8
1979-08-02 00:29:39.550 ,0,0,0.,4.8,5.,4.8,3.,4.8,2.,4.8
1979-08-02 00:29:44.350 ,0,0,0.,4.8,3.,4.8,0.,4.8,1.,4.8
1979-08-02 00:29:49.150 ,0,0,0.,4.8,5.,4.8,0.,4.8,0.,4.8
1979-08-02 00:29:53.950 ,0,0,0.,4.8,0.,4.8,0.,4.8,0.,4.8
1979-08-02 00:29:58.750 ,0,0,0.,4.8,2.,4.8,0.,4.8,0.,4.8
1979-08-02 00:30:03.550 ,0,0,0.,4.8,6.,4.8,0.,4.8,0.,4.8
1979-08-02 00:30:08.350 ,0,0,0.,4.8,8.,4.8,2.,4.8,1.,4.8
1979-08-02 00:30:13.150 ,0,0,0.,4.8,3.,4.8,0.,4.8,0.,4.8
1979-08-02 00:30:17.950 ,0,0,0.,4.8,0.,4.8,0.,4.8,0.,4.8
1979-08-02 00:30:22.750 ,5,0,0.,4.8,4.,4.8,0.,4.8,0.,4.8
1979-08-02 00:30:27.550 ,5,0,0.,4.8,15.,4.8,3.,4.8,1.,4.8
1979-08-02 00:30:32.350 ,5,0,0.,4.8,4.,4.8,0.,4.8,0.,4.8
1979-08-02 00:30:37.150 ,5,0,0.,4.8,3.,4.8,1.,4.8,1.,4.8
1979-08-02 00:30:41.950 ,5,0,0.,4.8,5.,4.8,0.,4.8,1.,4.8
1979-08-02 00:30:46.750 ,5,0,0.,4.8,3.,4.8,0.,4.8,1.,4.8
1979-08-02 00:30:51.550 ,5,0,0.,4.8,3.,4.8,1.,4.8,0.,4.8
1979-08-02 00:30:56.350 ,5,0,0.,4.8,5.,4.8,0.,4.8,0.,4.8
1979-08-02 00:31:01.150 ,5,0,0.,4.8,3.,4.8,0.,4.8,1.,4.8
1979-08-02 00:31:05.950 ,5,0,0.,4.8,3.,4.8,0.,4.8,1.,4.8
1979-08-02 00:31:10.750 ,4,0,0.,4.8,1.,4.8,0.,4.8,1.,4.8
1979-08-02 00:31:15.550 ,4,0,0.,4.8,6.,4.8,1.,4.8,2.,4.8
1979-08-02 00:31:20.350 ,4,0,0.,4.8,3.,4.8,0.,4.8,0.,4.8
1979-08-02 00:31:25.150 ,4,0,0.,4.8,1.,4.8,1.,4.8,0.,4.8
1979-08-02 00:31:29.950 ,4,0,0.,4.8,2.,4.8,0.,4.8,0.,4.8
1979-08-02 00:31:34.750 ,4,0,0.,4.8,3.,4.8,1.,4.8,0.,4.8
1979-08-02 00:31:39.550 ,4,0,0.,4.8,0.,4.8,0.,4.8,0.,4.8
1979-08-02 00:31:44.350 ,4,0,0.,4.8,0.,4.8,0.,4.8,1.,4.8
1979-08-02 00:31:49.150 ,4,0,0.,4.8,2.,4.8,0.,4.8,0.,4.8
1979-08-02 00:31:53.950 ,4,0,0.,4.8,2.,4.8,0.,4.8,0.,4.8
1979-08-02 00:31:58.750 ,3,0,0.,4.8,3.,4.8,0.,4.8,0.,4.8
1979-08-02 00:32:03.550 ,3,0,0.,4.8,1.,4.8,0.,4.8,1.,4.8
1979-08-02 00:32:08.350 ,3,0,0.,4.8,4.,4.8,1.,4.8,1.,4.8
1979-08-02 00:32:13.150 ,3,0,0.,4.8,2.,4.8,0.,4.8,0.,4.8
1979-08-02 00:32:17.950 ,3,0,0.,4.8,2.,4.8,0.,4.8,2.,4.8
1979-08-02 00:32:22.750 ,3,0,0.,4.8,3.,4.8,0.,4.8,1.,4.8
1979-08-02 00:32:27.550 ,3,0,0.,4.8,6.,4.8,1.,4.8,0.,4.8
1979-08-02 00:32:32.350 ,3,0,0.,4.8,3.,4.8,1.,4.8,0.,4.8
1979-08-02 00:32:37.150 ,3,0,0.,4.8,2.,4.8,0.,4.8,0.,4.8
1979-08-02 00:32:41.950 ,3,0,0.,4.8,3.,4.8,0.,4.8,0.,4.8
1979-08-02 00:32:46.750 ,2,0,0.,4.8,4.,4.8,1.,4.8,0.,4.8
1979-08-02 00:32:51.550 ,2,0,0.,4.8,3.,4.8,0.,4.8,0.,4.8
1979-08-02 00:32:56.350 ,2,0,0.,4.8,1.,4.8,0.,4.8,1.,4.8
1979-08-02 00:33:01.150 ,2,0,0.,4.8,3.,4.8,0.,4.8,1.,4.8
1979-08-02 00:33:05.950 ,2,0,0.,4.8,3.,4.8,2.,4.8,0.,4.8
1979-08-02 00:33:10.750 ,2,0,0.,4.8,3.,4.8,1.,4.8,0.,4.8